User: anonymous   Login
Location: Eckley
(40.9930°N, 75.8630°W)
Time: 12:47:50
(UTC-05:00)
Language:

Cosmos 2221 Rocket - Orbit

View from above orbital plane
View from above orbital plane
View from above satellite
View from above satellite

Ground track
Ground track

The orbit data is extracted from the following two-line orbital elements,

1 22237U 92080B   16040.10303067  .00000198  00000-0  24102-4 0  9997
2 22237  82.5102 217.3010 0020353  25.1425 107.0845 14.78232116250447
Epoch (UTC): 09 February 2016 02:28:21
Eccentricity: 0.0020353
inclination: 82.5102°
perigee height: 620 km
apogee height: 649 km
right ascension of ascending node: 217.3010°
argument of perigee: 25.1425°
revolutions per day: 14.78232116
mean anomaly at epoch: 107.0845°
orbit number at epoch: 25044

The dashed part of the orbit path shows where the satellite is in the earth's shadow,  

DLR